Weather History for Estherville, IA

Change the Weather History Date:

Monday, September 5, 2011

  Actual Average Record
Temperature  
Mean Temperature 56 °F 65 °F  
Max Temperature 69 °F 77 °F 93 °F (1960)
Min Temperature 42 °F 53 °F 35 °F (1962)
Degree Days  
Heating Degree Days 9 3  
Month to date heating degree days 15 12  
Since 1 July heating degree days 17 44  
Cooling Degree Days 0 3  
Month to date cooling degree days 22 15  
Year to date cooling degree days 722 555  
Growing Degree Days 6 (Base 50)    
Moisture  
Dew Point 47 °F    
Average Humidity 71    
Maximum Humidity 100    
Minimum Humidity 42    
Precipitation  
Precipitation 0.00 in 0.10 in 2.68 in (1985)
Month to date precipitation 0.37 0.49  
Year to date precipitation 18.55  
Sea Level Pressure  
Sea Level Pressure 30.20 in    
Wind  
Wind Speed 3 mph (SSE)    
Max Wind Speed 8 mph    
Max Gust Speed 14 mph    
Visibility 10 miles    
Events      
T = Trace of Precipitation, MM = Missing Value Source: NWS Daily Summary

Daily Weather History Graph

Daily Weather History Graph

Search for Another Location

Airport:

Trip Planner

Search our weather history database for the weather conditions in past years. The results will help you decide how hot, cold, wet, or windy it might be!

Date:

Astronomy

Sep. 05, 2011 Rise Set
Actual Time 6:47 AM CDT 7:47 PM CDT
Civil Twilight 6:17 AM CDT 8:16 PM CDT
Nautical Twilight 5:43 AM CDT 8:51 PM CDT
Astronomical Twilight 5:06 AM CDT 9:27 PM CDT
Moon 3:42 PM CDT (9/5) No Moon Set
Length of Visible Light 13h 58m
Length of Day
13h 00m
First Quarter, 61% of the Moon is Illuminated
Sep 5
First Quarter
Sep 12
Full
Sep 20
Last Quarter
Sep 27
New
Oct 3
First Quarter

Hourly Weather History & Observations

Time (CDT) Temp. Windchill Dew Point Humidity Pressure Visibility Wind Dir Wind Speed Gust Speed Precip Events Conditions
12:52 AM 48.0 °F - 46.0 °F 93% 30.22 in 10.0 mi NNW 5.8 mph - N/A   Clear
1:52 AM 46.9 °F - 45.0 °F 93% 30.22 in 10.0 mi Calm Calm - N/A   Clear
2:52 AM 46.0 °F 44.8 °F 44.1 °F 93% 30.22 in 10.0 mi NNW 3.5 mph - N/A   Clear
4:52 AM 44.1 °F 41.5 °F 42.1 °F 93% 30.22 in 10.0 mi NW 4.6 mph - N/A   Clear
8:52 AM 55.0 °F - 50.0 °F 83% 30.26 in 10.0 mi Calm Calm - N/A   Clear
9:52 AM 57.9 °F - 50.0 °F 75% 30.26 in 10.0 mi Calm Calm - N/A   Clear
10:52 AM 61.0 °F - 46.9 °F 60% 30.26 in 10.0 mi Variable 4.6 mph - N/A   Clear
11:52 AM 64.0 °F - 46.0 °F 52% 30.25 in 10.0 mi Variable 3.5 mph - N/A   Clear
12:52 PM 64.9 °F - 46.0 °F 50% 30.23 in 10.0 mi Calm Calm - N/A   Clear
1:52 PM 68.0 °F - 46.9 °F 47% 30.20 in 10.0 mi Calm Calm - N/A   Mostly Cloudy
2:52 PM 68.0 °F - 46.0 °F 45% 30.18 in 10.0 mi SE 4.6 mph - N/A   Scattered Clouds
3:52 PM 68.0 °F - 45.0 °F 43% 30.17 in 10.0 mi Variable 5.8 mph - N/A   Clear
4:52 PM 66.9 °F - 45.0 °F 45% 30.14 in 10.0 mi SSE 5.8 mph - N/A   Clear
5:52 PM 68.0 °F - 46.0 °F 45% 30.14 in 10.0 mi SSE 6.9 mph - N/A   Clear
7:52 PM 57.0 °F - 51.1 °F 81% 30.14 in 10.0 mi SSE 5.8 mph - N/A   Clear
8:52 PM 55.0 °F - 48.9 °F 80% 30.14 in 10.0 mi South 3.5 mph - N/A   Clear
9:52 PM 51.1 °F - 48.0 °F 89% 30.15 in 10.0 mi Calm Calm - N/A   Clear
10:52 PM 50.0 °F - 46.0 °F 86% 30.16 in 10.0 mi SSE 4.6 mph - N/A   Clear
11:52 PM 48.0 °F - 45.0 °F 89% 30.17 in 10.0 mi South 3.5 mph - N/A   Clear